Location: Brooks Farm Pond
(32.9618°N, 86.0700°W)
Time: 00:10:04
(UTC+00:00)

Cosmos 2219 - Pass Details

Date: 29 October 2020
Orbit: 832 x 862 km, 71.1° (Epoch: 28 November)

Event Time Altitude Azimuth Distance (km) Brightness Sun altitude
Rises 23:12:09 0° 349° (NNW) 3,442 6.4 -4.3°
Reaches altitude 10° 23:14:49 10° 357° (N) 2,503 5.6 -4.8°
Maximum altitude 23:20:06 36° 64° (ENE) 1,325 3.8 -5.9°
Drops below altitude 10° 23:25:21 10° 130° (SE) 2,488 5.3 -7.0°
Sets 23:27:59 0° 139° (SE) 3,418 6.1 -7.5°
